Kezdőlap
METAR-TAF:

METAR-TAF

Repülőterek :

La Veta Pass

La Veta, Colorado, Amerikai Egyesült Államok

földrajzi szélesség: 37-30-04N, földrajzi hosszúság: 105-10-01W, magasság: 3114 m

Jelenlegi meteorológiai megfigyelések

A jelentés 16 perccel ezelõtt készült, 08:15 UTC
Nyugati szél 6 kt
Hőmérséklet 2°C
Páratartalom 51%
Légköri nyomás 1027 hPa
Látótávolság: 16.1 km
Szórványos felhőzet 12000 lábon

METAR: KVTP 190815Z AUTO 26006KT 10SM SCT120 02/M07 A3032 RMK AO2

Idő: 02:31 (08:31 UTC)


TAF: hiányzik

Meteorológiai megfigyelések és előrejelzések több, mint 4000 repülőtéren (METAR és TAF jelentéseket).

A térképen piros és sárga pontok jelzik az elérhető meteorológiai állomásokat.

Mozgassa az egeret a pont fölött, hogy megjelenjen az állomás neve.

Azután kattintson az időjárási megfigyelések és előrejelzések megtekintéséhez.

A térkép megváltoztatása: kattintson a fekete keresztel jelölt zöld gombra ráközelítéshez, a vonallal jelölt zöld gombra távolításhoz, vagy a zöld nyilakra a szomszédos térképek eléréséhez.


METAR-TAF: